Weather Roundup
Issued by NWS

Home | Current Version | Previous Version | Graphics & Text | Print | Product List | Glossary Off
Versions: 1 2 3 4 5 6 7 8 9 10 11 12 13 14 15 16 17 18 19 20 21 22 23 24 25 26 27 28 29 30 31 32 33 34 35 36 37 38 39 40 41 42 43 44 45 46 47 48 49 50

000
NZUS93 KARX 221910
HRRWXR

CURRENT HOURLY OBSERVATIONS ACROSS
MUCH OF THE UPPER MISSISSIPPI VALLEY
NATIONAL WEATHER SERVICE LA CROSSE WI
200 PM CDT FRI MAY 22 2015


...SOUTHEAST MINNESOTA...


CITY           SKY/WX    TMP DP  RH WIND       PRES   REMARKS
ROCHESTER      SUNNY     70  36  28 NE7       30.23S
ROCHESTER/MAYO FAIR      72  33  24 NW6       30.22S
WINONA         SUNNY     70  37  30 CALM      30.21S
AUSTIN         SUNNY     70  34  26 CALM      30.22S
ALBERT LEA     SUNNY     73  34  23 SW7       30.21F
DODGE CENTER   SUNNY     70  30  23 NE3       30.23S
PRESTON        SUNNY     69  31  24 CALM      30.23S
OWATONNA       SUNNY     72  32  23 NE8       30.22S
FARIBAULT      SUNNY     72  32  23 CALM      30.22F
$$

...ELSEWHERE IN MINNESOTA...


CITY           SKY/WX    TMP DP  RH WIND       PRES   REMARKS
MINNEAPOLIS    SUNNY     72  34  24 N5        30.22S
INTNL FALLS    SUNNY     71  31  22 VRB6      30.14F
DULUTH         SUNNY     69  33  26 VRB3      30.19S
RED WING       SUNNY     73  30  20 W3        30.21S
REDWOOD FALLS  SUNNY     75  32  20 MISG      30.20F
MANKATO        SUNNY     70  34  26 CALM      30.22F
WORTHINGTON    MOSUNNY   72  32  23 S8        30.21S
FAIRMONT       SUNNY     72  30  21 SE6       30.21F
$$

...SOUTHWEST WISCONSIN...


CITY           SKY/WX    TMP DP  RH WIND       PRES   REMARKS
LA CROSSE      SUNNY     74  37  26 VRB5      30.21S
PRAIRIE DU CHI SUNNY     73  33  23 W5        30.21S
BOSCOBEL       SUNNY     74  36  25 CALM      30.21S
LONE ROCK      SUNNY     73  33  23 VRB5      30.21S
PLATTEVILLE    SUNNY     72  37  28 W9        30.22S
FORT MC COY    SUNNY     70  29  21 NE3       30.22S
CAMP DOUGLAS   SUNNY     70  36  29 SW6       30.21S
VIROQUA        FAIR      70  32  24 NW5       30.22S
WIS DELLS      SUNNY     70  31  23 N3        30.22S
$$

...ELSEWHERE IN WISCONSIN...


CITY           SKY/WX    TMP DP  RH WIND       PRES   REMARKS
MILWAUKEE      SUNNY     55  31  39 E8        30.28R
MADISON        MOSUNNY   70  35  27 VRB5      30.22F
GREEN BAY      SUNNY     65  30  27 SW7       30.24S
EAU CLAIRE     SUNNY     69  32  25 CALM      30.22S
BLACK RVR FLS  FAIR      71  29  21 NW6       30.21S
MEDFORD        SUNNY     66  32  28 S7        30.22F
WAUSAU         SUNNY     66  33  29 S3        30.21S
WIS RAPIDS     SUNNY     70  28  21 VRB5      30.24S
MARSHFIELD     SUNNY     68  34  28 W9        30.23S
RICE LAKE      SUNNY     67  30  25 W6        30.23F
$$

...NORTHEAST IOWA...


CITY           SKY/WX    TMP DP  RH WIND       PRES   REMARKS
DECORAH        SUNNY     70  34  26 VRB5      30.21S
MASON CITY     SUNNY     72  31  22 CALM      30.23F
CHARLES CITY   SUNNY     73  30  20 VRB6G13   30.22F
OELWEIN        SUNNY     73  34  23 VRB5      30.21F
$$

...ELSEWHERE IN IOWA...


CITY           SKY/WX    TMP DP  RH WIND       PRES   REMARKS
DES MOINES     CLOUDY    75  37  25 SW3       30.21F
IOWA CITY      MOSUNNY   73  37  27 CALM      30.22F
FORT DODGE     PTSUNNY   72  41  33 N5        30.22F
$$

...NORTHERN ILLINOIS...


CITY           SKY/WX    TMP DP  RH WIND       PRES   REMARKS
CHICAGO-OHARE  MOSUNNY   65  29  25 E9        30.24S
CHICAGO-MIDWAY MOSUNNY   68  30  24 E9        30.24S
MOLINE         SUNNY     76  34  21 VRB5      30.19F
ROCKFORD       MOSUNNY   71  38  29 S6        30.24S
PEORIA         MOSUNNY   78  39  24 MISG      30.21S
$$

NOTE: "FAIR" INDICATES FEW OR NO CLOUDS BELOW 12,000 FEET WITH NO
SIGNIFICANT WEATHER AND/OR OBSTRUCTIONS TO VISIBILITY. WIND
SPEEDS ARE IN MILES-PER-HOUR.



USA.gov is the U.S. government's official web portal to all federal, state and local government web resources and services.